User: anonymous   Login
Location: Unspecified
(0.0000°N, 0.0000°E)
Time: 15:23:01
(UTC+01:00)
Language:

ARIANE 5 R/B - Orbit

View from above orbital plane
View from above orbital plane
View from above satellite
View from above satellite

Ground track
Ground track

The orbit data is extracted from the following two-line orbital elements,

1 27510U 02040C   15028.20279338  .00000040  00000-0  47933-3 0  1390
2 27510 004.8285 189.0429 7153172 026.6159 346.3504 02.27183644103109
Epoch (UTC): 28 January 2015 04:52:01
Eccentricity: 0.7153172
inclination: 4.8285°
perigee height: 580 km
apogee height: 35548 km
right ascension of ascending node: 189.0429°
argument of perigee: 26.6159°
revolutions per day: 2.27183644
mean anomaly at epoch: 346.3504°
orbit number at epoch: 10310

The dashed part of the orbit path shows where the satellite is in the earth's shadow,  

DLR